sat.trackr.live / text

‹ back to catalog

KUIPER-00573

NORAD 69627 · 2026-140AM

PAYLOAD ACTIVE UNKNOWN

§ Identity

Operator
Country
US
Launch date
2026-06-17
Launch site
FRGUI
Launch vehicle
Mass (kg)
RCS (m²)

External: N2YO · Heavens-Above · Gunter

§ Orbital elements

Epoch: 2026-09-20T03:14:11.128992Z

Period
97.30 min
Inclination
51.9028°
Eccentricity
0.0000383
Mean motion
14.79931105 rev/d
Perigee alt
629.3 km
Apogee alt
629.8 km
Semi-major
7,007.7 km
B*
2.4169e-4
RAAN
310.8238°
Arg perigee
114.7240°
Mean anomaly
245.3762°
Rev number
1,568

§ Raw data

KUIPER-005731 69627U 26140AM  26263.13485103  .00001622  00000+0  24169-3 0  99922 69627  51.9028 310.8238 0000383 114.7240 245.3762 14.79931105 15684

JSON: /api/v1/satellites/69627 · /tle

For live sub-satellite position, see the globe view (requires WebGL).

§ Visibility from observer

Set your observer location to see the next 7 days of passes ≥ 10°. The values pass through the URL so the page stays shareable.

No JS? Fill the form by hand. The geolocation button needs JavaScript.